Weather in Plotnikovo

Russia / Kemerovo Oblast     55°01′23″N   85°56′27″E
temp.,
°C
wind,
m/s
gust,
m/s
humid.,
%
clouds,
%
prec.,
mm/h
press.,
hPa
HPBL,
m
30 november, tue
tue3001:00−13s369181 0.0 103272
04:00−13s378889 0.0 103184
07:00−13s3787100 0.0 103085
10:00−12s4985100 0.0 1029123
13:00−8s4108481 0.0 1028217
16:00−7s598296 0.0 1027189
19:00−8s5108384 0.0 1028152
22:00−11s488763 0.0 102892
1 december, wed
wed101:00−12s37925 0.0 102873
04:00−14s36935 0.0 102973
07:00−15s359569 0.0 103047
10:00−15s369459 0.0 103176
13:00−10s489063 0.0 1030185
16:00−8s5108960 0.0 1029175
19:00−12s349274 0.0 102942
22:00−13s229394 0.0 102934
2 december, thu
thu201:00−10s4989100 0.0 1028118
04:00−11s3790100 0.0 102894
07:00−12s4888100 0.0 1028103
10:00−10s41085100 0.0 1027138
13:00−6s41181100 0.0 1025228
16:00−6s41086100 0.0 1024152
19:00−6s41184100 0.0 1023155
22:00−6s51476100 0.0 1022195
3 december, fri
fri301:00−7s513735 0.0 1021167
04:00−8sse411765 0.0 1019144
07:00−6s514715 0.0 1017196
10:00−7sse414745 0.0 1015191
13:00−1ssw6196766 0.0 1012383
16:000ssw71566100 0.0 1010538
19:000ssw71697100 0.4 1010746
22:000sw71498100 3.6 1011793
4 december, sat
sat401:000wsw61297100 6.3 1012838
04:00−2wsw71386100 0.3 1017699
07:00−4sw71586100 0.3 1020562
10:00−5sw71487100 0.0 1022774
13:00−5wsw71387100 0.0 1024901
16:00−5wsw61295100 0.4 1025883
19:00−6wsw71390100 0.9 1027736
22:00−7wsw61389100 0.1 1029535